Time,TemperatureF,DewpointF,PressureIn,WindDirection,WindDirectionDegrees,WindSpeedMPH,WindSpeedGustMPH,Humidity,HourlyPrecipIn,Conditions,Clouds,dailyrainin,SoftwareType,DateUTC
2013-06-01 00:01:00,68.2,67.6,29.62,SW,225,8.0,11.0,98,0.00,,,0.00,meteohub,2013-06-01 05:01:00,
2013-06-01 00:06:00,68.2,67.6,29.62,SW,225,8.0,8.0,98,0.00,,,0.00,meteohub,2013-06-01 05:06:00,
2013-06-01 00:11:00,68.2,67.6,29.61,South,180,4.0,8.0,98,0.00,,,0.00,meteohub,2013-06-01 05:11:00,
2013-06-01 00:16:00,68.0,67.5,29.61,SW,225,2.0,8.0,98,0.00,,,0.00,meteohub,2013-06-01 05:16:00,
2013-06-01 00:21:00,68.0,67.5,29.60,SE,135,2.0,8.0,98,0.00,,,0.00,meteohub,2013-06-01 05:21:00,
2013-06-01 00:26:00,68.0,67.5,29.60,SE,135,3.0,4.0,98,0.00,,,0.00,meteohub,2013-06-01 05:26:00,
2013-06-01 00:31:00,67.8,67.5,29.60,SE,135,3.0,4.0,99,0.00,,,0.00,meteohub,2013-06-01 05:31:00,
2013-06-01 00:36:00,67.8,67.5,29.60,East,90,3.0,4.0,99,0.00,,,0.00,meteohub,2013-06-01 05:36:00,
2013-06-01 00:42:00,67.8,67.5,29.59,SE,135,6.0,6.0,99,0.00,,,0.00,meteohub,2013-06-01 05:42:00,
2013-06-01 00:47:00,67.8,67.5,29.59,SW,225,3.0,7.0,99,0.00,,,0.00,meteohub,2013-06-01 05:47:00,
2013-06-01 00:52:00,67.8,67.5,29.60,South,180,4.0,7.0,99,0.00,,,0.00,meteohub,2013-06-01 05:52:00,
2013-06-01 00:57:00,67.8,67.5,29.60,SW,225,6.0,7.0,99,0.00,,,0.00,meteohub,2013-06-01 05:57:00,
2013-06-01 01:02:00,68.0,67.6,29.60,SW,225,8.0,8.0,99,0.00,,,0.00,meteohub,2013-06-01 06:02:00,
2013-06-01 01:07:00,68.2,67.8,29.60,SW,225,8.0,8.0,99,0.00,,,0.00,meteohub,2013-06-01 06:07:00,
2013-06-01 01:12:00,68.2,67.8,29.61,SW,225,10.0,10.0,99,0.00,,,0.00,meteohub,2013-06-01 06:12:00,
2013-06-01 01:17:00,68.4,68.0,29.60,SW,225,11.0,11.0,99,0.00,,,0.00,meteohub,2013-06-01 06:17:00,
2013-06-01 01:22:00,68.4,68.0,29.61,South,180,8.0,11.0,99,0.00,,,0.00,meteohub,2013-06-01 06:22:00,
2013-06-01 01:27:00,68.4,68.0,29.61,SW,225,8.0,11.0,99,0.00,,,0.00,meteohub,2013-06-01 06:27:00,
2013-06-01 01:32:00,68.4,68.0,29.61,South,180,11.0,12.0,99,0.00,,,0.00,meteohub,2013-06-01 06:32:00,
2013-06-01 01:37:00,68.4,68.0,29.61,SW,225,10.0,12.0,99,0.00,,,0.00,meteohub,2013-06-01 06:37:00,
2013-06-01 01:42:00,68.2,67.6,29.60,SW,225,9.0,13.0,98,0.00,,,0.00,meteohub,2013-06-01 06:42:00,
2013-06-01 01:47:00,68.2,67.6,29.60,SW,225,11.0,13.0,98,0.00,,,0.00,meteohub,2013-06-01 06:47:00,
2013-06-01 01:52:00,68.2,67.6,29.60,South,180,9.0,14.0,98,0.00,,,0.00,meteohub,2013-06-01 06:52:00,
2013-06-01 01:57:00,68.2,67.6,29.60,West,270,8.0,14.0,98,0.00,,,0.00,meteohub,2013-06-01 06:57:00,
2013-06-01 02:02:00,68.2,67.6,29.60,SW,225,9.0,12.0,98,0.00,,,0.00,meteohub,2013-06-01 07:02:00,
2013-06-01 02:07:00,68.0,67.5,29.59,SW,225,8.0,14.0,98,0.00,,,0.00,meteohub,2013-06-01 07:07:00,
2013-06-01 02:12:00,67.8,67.5,29.59,SW,225,5.0,14.0,99,0.00,,,0.00,meteohub,2013-06-01 07:12:00,
2013-06-01 02:17:00,67.6,67.3,29.59,SW,225,4.0,13.0,99,0.00,,,0.00,meteohub,2013-06-01 07:17:00,
2013-06-01 02:22:00,67.6,67.3,29.59,SW,225,4.0,8.0,99,0.00,,,0.00,meteohub,2013-06-01 07:22:00,
2013-06-01 02:27:00,67.6,67.3,29.59,South,180,4.0,7.0,99,0.00,,,0.00,meteohub,2013-06-01 07:27:00,
2013-06-01 02:32:00,67.6,67.3,29.59,South,180,6.0,7.0,99,0.00,,,0.00,meteohub,2013-06-01 07:32:00,
2013-06-01 02:37:00,67.6,67.3,29.58,SW,225,4.0,11.0,99,0.00,,,0.00,meteohub,2013-06-01 07:37:00,
2013-06-01 02:42:00,67.6,67.3,29.59,SW,225,6.0,11.0,99,0.00,,,0.00,meteohub,2013-06-01 07:42:00,
2013-06-01 02:47:00,67.5,67.1,29.59,West,270,4.0,9.0,99,0.00,,,0.00,meteohub,2013-06-01 07:47:00,
2013-06-01 02:52:00,67.5,67.1,29.59,North,0,3.0,8.0,99,0.00,,,0.00,meteohub,2013-06-01 07:52:00,
2013-06-01 02:57:00,67.3,66.9,29.58,South,180,4.0,8.0,99,0.00,,,0.00,meteohub,2013-06-01 07:57:00,
2013-06-01 03:02:00,67.1,66.7,29.59,SW,225,8.0,8.0,99,0.00,,,0.00,meteohub,2013-06-01 08:02:00,
2013-06-01 03:07:00,67.1,66.7,29.59,South,180,6.0,8.0,99,0.00,,,0.00,meteohub,2013-06-01 08:07:00,
2013-06-01 03:12:00,66.9,66.6,29.60,SW,225,4.0,8.0,99,0.00,,,0.00,meteohub,2013-06-01 08:12:00,
2013-06-01 03:17:00,66.9,66.6,29.59,SW,225,8.0,8.0,99,0.00,,,0.00,meteohub,2013-06-01 08:17:00,
2013-06-01 03:22:00,66.9,66.6,29.58,SW,225,6.0,9.0,99,0.00,,,0.00,meteohub,2013-06-01 08:22:00,
2013-06-01 03:27:00,66.9,66.6,29.60,SW,225,7.0,9.0,99,0.00,,,0.00,meteohub,2013-06-01 08:27:00,
2013-06-01 03:32:00,66.7,66.4,29.59,SW,225,5.0,9.0,99,0.00,,,0.00,meteohub,2013-06-01 08:32:00,
2013-06-01 03:37:00,66.6,66.2,29.58,South,180,4.0,9.0,99,0.00,,,0.00,meteohub,2013-06-01 08:37:00,
2013-06-01 03:42:00,66.2,65.8,29.59,South,180,4.0,8.0,99,0.00,,,0.00,meteohub,2013-06-01 08:42:00,
2013-06-01 03:47:00,66.2,65.8,29.59,SW,225,8.0,8.0,99,0.00,,,0.00,meteohub,2013-06-01 08:47:00,
2013-06-01 03:52:00,66.2,65.8,29.59,SW,225,8.0,8.0,99,0.00,,,0.00,meteohub,2013-06-01 08:52:00,
2013-06-01 03:57:00,65.8,65.5,29.59,South,180,5.0,8.0,99,0.00,,,0.00,meteohub,2013-06-01 08:57:00,
2013-06-01 04:02:00,65.7,65.3,29.59,SW,225,7.0,8.0,99,0.00,,,0.00,meteohub,2013-06-01 09:02:00,
2013-06-01 04:07:00,65.5,65.1,29.58,South,180,3.0,8.0,99,0.00,,,0.00,meteohub,2013-06-01 09:07:00,
2013-06-01 04:13:00,65.3,64.9,29.59,East,90,2.0,7.0,99,0.00,,,0.00,meteohub,2013-06-01 09:13:00,
2013-06-01 04:18:00,65.1,64.8,29.59,SW,225,4.0,7.0,99,0.00,,,0.00,meteohub,2013-06-01 09:18:00,
2013-06-01 04:23:00,64.9,64.6,29.59,SW,225,4.0,4.0,99,0.00,,,0.00,meteohub,2013-06-01 09:23:00,
2013-06-01 04:28:00,64.9,64.6,29.59,South,180,5.0,6.0,99,0.00,,,0.00,meteohub,2013-06-01 09:28:00,
2013-06-01 04:33:00,64.9,64.6,29.59,SW,225,4.0,6.0,99,0.00,,,0.00,meteohub,2013-06-01 09:33:00,
2013-06-01 04:38:00,64.9,64.6,29.60,South,180,8.0,8.0,99,0.00,,,0.00,meteohub,2013-06-01 09:38:00,
2013-06-01 04:43:00,64.9,64.6,29.59,WSW,248,5.0,9.0,99,0.00,,,0.00,meteohub,2013-06-01 09:43:00,
2013-06-01 04:48:00,64.9,64.6,29.60,South,180,5.0,9.0,99,0.00,,,0.00,meteohub,2013-06-01 09:48:00,
2013-06-01 04:53:00,64.9,64.6,29.59,SW,225,7.0,9.0,99,0.00,,,0.00,meteohub,2013-06-01 09:53:00,
2013-06-01 04:58:00,64.9,64.6,29.59,NW,315,6.0,8.0,99,0.00,,,0.00,meteohub,2013-06-01 09:58:00,
2013-06-01 05:03:00,64.8,64.4,29.59,SE,135,6.0,8.0,99,0.00,,,0.00,meteohub,2013-06-01 10:03:00,
2013-06-01 05:08:00,64.8,64.4,29.59,SE,135,4.0,8.0,99,0.00,,,0.00,meteohub,2013-06-01 10:08:00,
2013-06-01 05:13:00,64.8,64.4,29.59,South,180,5.0,8.0,99,0.00,,,0.00,meteohub,2013-06-01 10:13:00,
2013-06-01 05:18:00,64.8,64.4,29.59,SW,225,5.0,8.0,99,0.00,,,0.00,meteohub,2013-06-01 10:18:00,
2013-06-01 05:23:00,64.8,64.4,29.59,SW,225,5.0,8.0,99,0.00,,,0.00,meteohub,2013-06-01 10:23:00,
2013-06-01 05:28:00,64.6,64.2,29.60,South,180,6.0,10.0,99,0.00,,,0.00,meteohub,2013-06-01 10:28:00,
2013-06-01 05:33:00,64.6,64.2,29.60,SE,135,6.0,10.0,99,0.00,,,0.00,meteohub,2013-06-01 10:33:00,
2013-06-01 05:38:00,64.8,64.4,29.60,South,180,6.0,12.0,99,0.00,,,0.00,meteohub,2013-06-01 10:38:00,
2013-06-01 05:43:00,64.8,64.4,29.59,SW,225,6.0,12.0,99,0.00,,,0.00,meteohub,2013-06-01 10:43:00,
2013-06-01 05:48:00,64.8,64.4,29.60,SW,225,8.0,9.0,99,0.00,,,0.00,meteohub,2013-06-01 10:48:00,
2013-06-01 05:54:00,64.8,64.4,29.60,SW,225,9.0,11.0,99,0.00,,,0.00,meteohub,2013-06-01 10:54:00,
2013-06-01 05:59:00,64.8,64.4,29.60,SW,225,10.0,11.0,99,0.00,,,0.00,meteohub,2013-06-01 10:59:00,
2013-06-01 06:04:00,64.9,64.6,29.60,NNE,23,5.0,11.0,99,0.00,,,0.00,meteohub,2013-06-01 11:04:00,
2013-06-01 06:09:00,64.9,64.6,29.60,South,180,5.0,10.0,99,0.00,,,0.00,meteohub,2013-06-01 11:09:00,
2013-06-01 06:14:00,64.9,64.6,29.60,SW,225,10.0,10.0,99,0.00,,,0.00,meteohub,2013-06-01 11:14:00,
2013-06-01 06:19:00,64.9,64.6,29.60,South,180,11.0,12.0,99,0.00,,,0.00,meteohub,2013-06-01 11:19:00,
2013-06-01 06:24:00,65.1,64.8,29.60,SW,225,8.0,12.0,99,0.00,,,0.00,meteohub,2013-06-01 11:24:00,
2013-06-01 06:29:00,65.1,64.8,29.60,SW,225,9.0,12.0,99,0.00,,,0.00,meteohub,2013-06-01 11:29:00,
2013-06-01 06:34:00,65.3,64.9,29.60,SW,225,8.0,12.0,99,0.00,,,0.00,meteohub,2013-06-01 11:34:00,
2013-06-01 06:39:00,65.5,65.1,29.60,South,180,9.0,12.0,99,0.00,,,0.00,meteohub,2013-06-01 11:39:00,
2013-06-01 06:44:00,65.5,65.1,29.60,SW,225,8.0,15.0,99,0.00,,,0.00,meteohub,2013-06-01 11:44:00,
2013-06-01 06:49:00,65.5,65.1,29.60,SW,225,4.0,15.0,99,0.00,,,0.00,meteohub,2013-06-01 11:49:00,
2013-06-01 06:54:00,65.7,65.3,29.59,SW,225,8.0,13.0,99,0.00,,,0.00,meteohub,2013-06-01 11:54:00,
2013-06-01 06:59:00,65.7,65.3,29.60,South,180,7.0,13.0,99,0.00,,,0.00,meteohub,2013-06-01 11:59:00,
2013-06-01 07:04:00,65.8,65.5,29.60,South,180,11.0,11.0,99,0.00,,,0.00,meteohub,2013-06-01 12:04:00,
2013-06-01 07:10:00,65.8,65.5,29.60,South,180,8.0,11.0,99,0.00,,,0.00,meteohub,2013-06-01 12:10:00,
2013-06-01 07:15:00,65.8,65.5,29.60,SW,225,5.0,14.0,99,0.00,,,0.00,meteohub,2013-06-01 12:15:00,
2013-06-01 07:20:00,65.8,65.5,29.60,SW,225,7.0,14.0,99,0.00,,,0.00,meteohub,2013-06-01 12:20:00,
2013-06-01 07:25:00,65.8,65.5,29.60,SW,225,10.0,13.0,99,0.00,,,0.00,meteohub,2013-06-01 12:25:00,
2013-06-01 07:30:00,66.2,65.7,29.60,SW,225,8.0,13.0,98,0.00,,,0.00,meteohub,2013-06-01 12:30:00,
2013-06-01 07:35:00,66.4,65.5,29.60,SW,225,7.0,11.0,97,0.00,,,0.00,meteohub,2013-06-01 12:35:00,
2013-06-01 07:40:00,66.6,65.7,29.60,SW,225,11.0,11.0,97,0.00,,,0.00,meteohub,2013-06-01 12:40:00,
2013-06-01 07:45:00,66.7,65.8,29.61,SW,225,10.0,11.0,97,0.00,,,0.00,meteohub,2013-06-01 12:45:00,
2013-06-01 07:50:00,66.7,65.5,29.60,SW,225,11.0,11.0,96,0.00,,,0.00,meteohub,2013-06-01 12:50:00,
2013-06-01 07:55:00,66.9,65.7,29.60,SW,225,11.0,12.0,96,0.00,,,0.00,meteohub,2013-06-01 12:55:00,
2013-06-01 08:00:00,66.9,65.7,29.61,SW,225,6.0,12.0,96,0.00,,,0.00,meteohub,2013-06-01 13:00:00,
2013-06-01 08:05:00,67.1,65.8,29.60,SW,225,4.0,11.0,96,0.00,,,0.00,meteohub,2013-06-01 13:05:00,
2013-06-01 08:10:00,67.5,66.0,29.60,SW,225,14.0,14.0,95,0.00,,,0.00,meteohub,2013-06-01 13:10:00,
2013-06-01 08:15:00,67.8,66.0,29.60,SW,225,6.0,14.0,94,0.00,,,0.00,meteohub,2013-06-01 13:15:00,
2013-06-01 08:20:00,67.8,65.7,29.60,SW,225,8.0,14.0,93,0.00,,,0.00,meteohub,2013-06-01 13:20:00,
2013-06-01 08:25:00,67.8,65.5,29.60,NW,315,9.0,14.0,92,0.00,,,0.00,meteohub,2013-06-01 13:25:00,
2013-06-01 08:30:00,67.8,65.5,29.60,SW,225,6.0,11.0,92,0.00,,,0.00,meteohub,2013-06-01 13:30:00,
2013-06-01 08:35:00,68.0,65.3,29.60,SW,225,8.0,11.0,91,0.00,,,0.00,meteohub,2013-06-01 13:35:00,
2013-06-01 08:40:00,68.0,65.3,29.60,South,180,10.0,11.0,91,0.00,,,0.00,meteohub,2013-06-01 13:40:00,
2013-06-01 08:45:00,68.4,65.7,29.60,SW,225,5.0,11.0,91,0.00,,,0.00,meteohub,2013-06-01 13:45:00,
2013-06-01 08:50:00,68.7,65.7,29.60,SE,135,6.0,10.0,90,0.00,,,0.00,meteohub,2013-06-01 13:50:00,
2013-06-01 08:56:00,69.1,65.7,29.60,SW,225,6.0,10.0,89,0.00,,,0.00,meteohub,2013-06-01 13:56:00,
2013-06-01 09:01:00,69.4,65.7,29.60,SW,225,8.0,9.0,88,0.00,,,0.00,meteohub,2013-06-01 14:01:00,
2013-06-01 09:06:00,69.6,65.7,29.60,SW,225,8.0,10.0,87,0.00,,,0.00,meteohub,2013-06-01 14:06:00,
2013-06-01 09:11:00,70.2,65.8,29.61,South,180,10.0,13.0,86,0.00,,,0.00,meteohub,2013-06-01 14:11:00,
2013-06-01 09:16:00,70.3,66.0,29.60,SE,135,10.0,13.0,86,0.00,,,0.00,meteohub,2013-06-01 14:16:00,
2013-06-01 09:21:00,70.3,66.0,29.60,SW,225,9.0,13.0,86,0.00,,,0.00,meteohub,2013-06-01 14:21:00,
2013-06-01 09:26:00,70.0,65.7,29.61,South,180,5.0,12.0,86,0.00,,,0.00,meteohub,2013-06-01 14:26:00,
2013-06-01 09:31:00,70.2,66.0,29.61,South,180,19.0,19.0,87,0.00,,,0.00,meteohub,2013-06-01 14:31:00,
2013-06-01 09:36:00,70.0,65.7,29.61,SE,135,12.0,19.0,86,0.00,,,0.00,meteohub,2013-06-01 14:36:00,
2013-06-01 09:41:00,70.0,65.7,29.61,South,180,11.0,19.0,86,0.00,,,0.00,meteohub,2013-06-01 14:41:00,
2013-06-01 09:46:00,70.3,66.0,29.60,SE,135,8.0,19.0,86,0.00,,,0.00,meteohub,2013-06-01 14:46:00,
2013-06-01 09:51:00,70.9,66.6,29.60,South,180,12.0,16.0,86,0.00,,,0.00,meteohub,2013-06-01 14:51:00,
2013-06-01 09:56:00,70.9,66.6,29.60,SW,225,10.0,12.0,86,0.00,,,0.00,meteohub,2013-06-01 14:56:00,
2013-06-01 10:01:00,70.9,66.6,29.60,South,180,15.0,15.0,86,0.00,,,0.00,meteohub,2013-06-01 15:01:00,
2013-06-01 10:06:00,70.9,66.6,29.60,South,180,6.0,15.0,86,0.00,,,0.00,meteohub,2013-06-01 15:06:00,
2013-06-01 10:11:00,70.5,66.2,29.60,South,180,12.0,15.0,86,0.00,,,0.00,meteohub,2013-06-01 15:11:00,
2013-06-01 10:16:00,70.5,66.2,29.60,SE,135,15.0,15.0,86,0.00,,,0.00,meteohub,2013-06-01 15:16:00,
2013-06-01 10:21:00,70.7,66.4,29.60,South,180,14.0,16.0,86,0.00,,,0.00,meteohub,2013-06-01 15:21:00,
2013-06-01 10:26:00,70.5,65.8,29.60,South,180,12.0,17.0,85,0.00,,,0.00,meteohub,2013-06-01 15:26:00,
2013-06-01 10:32:00,70.3,65.7,29.60,South,180,11.0,17.0,85,0.00,,,0.00,meteohub,2013-06-01 15:32:00,
2013-06-01 10:37:00,70.0,65.3,29.61,South,180,8.0,17.0,85,0.00,,,0.00,meteohub,2013-06-01 15:37:00,
2013-06-01 10:42:00,70.0,64.9,29.61,SW,225,8.0,16.0,84,0.00,,,0.00,meteohub,2013-06-01 15:42:00,
2013-06-01 10:47:00,70.0,65.3,29.61,SW,225,8.0,16.0,85,0.00,,,0.00,meteohub,2013-06-01 15:47:00,
2013-06-01 10:52:00,70.5,65.8,29.61,SW,225,10.0,12.0,85,0.00,,,0.00,meteohub,2013-06-01 15:52:00,
2013-06-01 10:57:00,70.7,65.7,29.61,SW,225,7.0,15.0,84,0.00,,,0.00,meteohub,2013-06-01 15:57:00,
2013-06-01 11:02:00,71.2,66.2,29.61,SW,225,8.0,15.0,84,0.00,,,0.00,meteohub,2013-06-01 16:02:00,
2013-06-01 11:07:00,71.4,66.0,29.61,South,180,11.0,15.0,83,0.00,,,0.00,meteohub,2013-06-01 16:07:00,
2013-06-01 11:12:00,71.2,65.8,29.61,SW,225,13.0,13.0,83,0.00,,,0.00,meteohub,2013-06-01 16:12:00,
2013-06-01 11:17:00,72.3,65.8,29.61,South,180,11.0,16.0,80,0.00,,,0.00,meteohub,2013-06-01 16:17:00,
2013-06-01 11:22:00,72.7,64.8,29.61,South,180,10.0,16.0,76,0.00,,,0.00,meteohub,2013-06-01 16:22:00,
2013-06-01 11:27:00,72.9,64.0,29.61,SE,135,8.0,16.0,74,0.00,,,0.00,meteohub,2013-06-01 16:27:00,
2013-06-01 11:32:00,72.3,63.1,29.61,SW,225,14.0,16.0,73,0.00,,,0.00,meteohub,2013-06-01 16:32:00,
2013-06-01 11:37:00,72.5,63.7,29.61,SW,225,17.0,17.0,74,0.00,,,0.00,meteohub,2013-06-01 16:37:00,
2013-06-01 11:42:00,73.8,65.3,29.60,SW,225,11.0,17.0,75,0.00,,,0.00,meteohub,2013-06-01 16:42:00,
2013-06-01 11:47:00,73.4,64.6,29.60,SW,225,10.0,17.0,74,0.00,,,0.00,meteohub,2013-06-01 16:47:00,
2013-06-01 11:52:00,72.7,63.5,29.60,SW,225,8.0,17.0,73,0.00,,,0.00,meteohub,2013-06-01 16:52:00,
2013-06-01 11:57:00,73.0,63.9,29.60,SW,225,6.0,17.0,73,0.00,,,0.00,meteohub,2013-06-01 16:57:00,
2013-06-01 12:02:00,73.4,64.9,29.60,West,270,8.0,17.0,75,0.00,,,0.00,meteohub,2013-06-01 17:02:00,
2013-06-01 12:07:00,73.0,63.9,29.60,SW,225,9.0,17.0,73,0.00,,,0.00,meteohub,2013-06-01 17:07:00,
2013-06-01 12:12:00,73.4,64.2,29.60,SW,225,12.0,15.0,73,0.00,,,0.00,meteohub,2013-06-01 17:12:00,
2013-06-01 12:17:00,72.9,63.0,29.60,SW,225,9.0,13.0,71,0.00,,,0.00,meteohub,2013-06-01 17:17:00,
2013-06-01 12:22:00,72.3,62.8,29.61,SW,225,11.0,13.0,72,0.00,,,0.00,meteohub,2013-06-01 17:22:00,
2013-06-01 12:27:00,72.1,62.2,29.61,NW,315,15.0,17.0,71,0.00,,,0.00,meteohub,2013-06-01 17:27:00,
2013-06-01 12:32:00,72.5,63.0,29.60,SW,225,11.0,19.0,72,0.00,,,0.00,meteohub,2013-06-01 17:32:00,
2013-06-01 12:37:00,73.0,61.9,29.61,WNW,293,17.0,19.0,68,0.00,,,0.00,meteohub,2013-06-01 17:37:00,
2013-06-01 12:42:00,72.9,60.4,29.61,NE,45,16.0,18.0,65,0.00,,,0.00,meteohub,2013-06-01 17:42:00,
2013-06-01 12:47:00,73.0,61.0,29.61,SW,225,14.0,23.0,66,0.00,,,0.00,meteohub,2013-06-01 17:47:00,
2013-06-01 12:52:00,73.8,62.1,29.61,SW,225,12.0,23.0,67,0.00,,,0.00,meteohub,2013-06-01 17:52:00,
2013-06-01 12:57:00,74.3,62.2,29.60,South,180,15.0,23.0,66,0.00,,,0.00,meteohub,2013-06-01 17:57:00,
2013-06-01 13:02:00,73.9,61.3,29.60,SW,225,13.0,17.0,65,0.00,,,0.00,meteohub,2013-06-01 18:02:00,
2013-06-01 13:07:00,73.8,58.5,29.60,WNW,293,14.0,17.0,59,0.00,,,0.00,meteohub,2013-06-01 18:07:00,
2013-06-01 13:12:00,74.3,59.9,29.60,South,180,9.0,17.0,61,0.00,,,0.00,meteohub,2013-06-01 18:12:00,
2013-06-01 13:17:00,74.8,61.0,29.59,South,180,11.0,17.0,62,0.00,,,0.00,meteohub,2013-06-01 18:17:00,
2013-06-01 13:22:00,75.2,59.9,29.59,SW,225,11.0,18.0,59,0.00,,,0.00,meteohub,2013-06-01 18:22:00,
2013-06-01 13:27:00,75.7,60.4,29.60,South,180,15.0,18.0,59,0.00,,,0.00,meteohub,2013-06-01 18:27:00,
2013-06-01 13:32:00,76.3,59.4,29.60,SW,225,15.0,17.0,56,0.00,,,0.00,meteohub,2013-06-01 18:32:00,
2013-06-01 13:37:00,76.5,58.6,29.59,South,180,13.0,17.0,54,0.00,,,0.00,meteohub,2013-06-01 18:37:00,
2013-06-01 13:42:00,76.5,58.6,29.59,SW,225,16.0,17.0,54,0.00,,,0.00,meteohub,2013-06-01 18:42:00,
2013-06-01 13:47:00,76.6,60.3,29.59,South,180,10.0,16.0,57,0.00,,,0.00,meteohub,2013-06-01 18:47:00,
2013-06-01 13:52:00,76.8,59.0,29.59,SW,225,12.0,21.0,54,0.00,,,0.00,meteohub,2013-06-01 18:52:00,
2013-06-01 13:57:00,76.5,58.6,29.59,West,270,15.0,21.0,54,0.00,,,0.00,meteohub,2013-06-01 18:57:00,
2013-06-01 14:02:00,76.8,59.0,29.58,SW,225,16.0,21.0,54,0.00,,,0.00,meteohub,2013-06-01 19:02:00,
2013-06-01 14:07:00,76.8,55.0,29.58,SW,225,10.0,21.0,47,0.00,,,0.00,meteohub,2013-06-01 19:07:00,
2013-06-01 14:12:00,76.8,56.8,29.58,South,180,9.0,21.0,50,0.00,,,0.00,meteohub,2013-06-01 19:12:00,
2013-06-01 14:17:00,77.2,56.5,29.58,SW,225,8.0,19.0,49,0.00,,,0.00,meteohub,2013-06-01 19:17:00,
2013-06-01 14:22:00,77.2,56.5,29.58,SW,225,11.0,19.0,49,0.00,,,0.00,meteohub,2013-06-01 19:22:00,
2013-06-01 14:27:00,77.4,57.2,29.58,WNW,293,16.0,17.0,50,0.00,,,0.00,meteohub,2013-06-01 19:27:00,
2013-06-01 14:32:00,77.0,55.8,29.58,WSW,248,17.0,17.0,48,0.00,,,0.00,meteohub,2013-06-01 19:32:00,
2013-06-01 14:38:00,76.8,57.9,29.58,South,180,10.0,20.0,52,0.00,,,0.00,meteohub,2013-06-01 19:38:00,
2013-06-01 14:43:00,77.0,58.1,29.58,SW,225,8.0,20.0,52,0.00,,,0.00,meteohub,2013-06-01 19:43:00,
2013-06-01 14:48:00,76.8,59.0,29.58,South,180,15.0,18.0,54,0.00,,,0.00,meteohub,2013-06-01 19:48:00,
2013-06-01 14:53:00,76.3,59.0,29.58,SW,225,17.0,18.0,55,0.00,,,0.00,meteohub,2013-06-01 19:53:00,
2013-06-01 14:58:00,76.5,59.2,29.58,NW,315,12.0,17.0,55,0.00,,,0.00,meteohub,2013-06-01 19:58:00,
2013-06-01 15:03:00,76.8,59.0,29.59,West,270,14.0,18.0,54,0.00,,,0.00,meteohub,2013-06-01 20:03:00,
2013-06-01 15:08:00,77.0,58.1,29.58,SW,225,13.0,21.0,52,0.00,,,0.00,meteohub,2013-06-01 20:08:00,
2013-06-01 15:13:00,76.8,57.9,29.58,NW,315,13.0,21.0,52,0.00,,,0.00,meteohub,2013-06-01 20:13:00,
2013-06-01 15:18:00,76.3,56.8,29.58,SW,225,17.0,18.0,51,0.00,,,0.00,meteohub,2013-06-01 20:18:00,
2013-06-01 15:23:00,76.1,56.7,29.58,South,180,10.0,19.0,51,0.00,,,0.00,meteohub,2013-06-01 20:23:00,
2013-06-01 15:28:00,76.5,57.0,29.58,West,270,8.0,19.0,51,0.00,,,0.00,meteohub,2013-06-01 20:28:00,
2013-06-01 15:33:00,76.5,57.6,29.58,SW,225,13.0,19.0,52,0.00,,,0.00,meteohub,2013-06-01 20:33:00,
2013-06-01 15:38:00,75.9,57.0,29.58,SW,225,12.0,15.0,52,0.00,,,0.00,meteohub,2013-06-01 20:38:00,
2013-06-01 15:43:00,75.0,57.2,29.58,West,270,15.0,15.0,54,0.00,,,0.00,meteohub,2013-06-01 20:43:00,
2013-06-01 15:48:00,75.0,57.7,29.59,SW,225,12.0,15.0,55,0.00,,,0.00,meteohub,2013-06-01 20:48:00,
2013-06-01 15:53:00,75.6,57.2,29.59,West,270,17.0,17.0,53,0.00,,,0.00,meteohub,2013-06-01 20:53:00,
2013-06-01 15:59:00,74.8,57.6,29.59,NW,315,12.0,17.0,55,0.00,,,0.00,meteohub,2013-06-01 20:59:00,
2013-06-01 16:04:00,74.3,57.0,29.59,West,270,12.0,25.0,55,0.00,,,0.00,meteohub,2013-06-01 21:04:00,
2013-06-01 16:09:00,74.3,57.6,29.59,NW,315,11.0,25.0,56,0.00,,,0.00,meteohub,2013-06-01 21:09:00,
2013-06-01 16:14:00,73.4,56.3,29.59,WNW,293,11.0,25.0,55,0.00,,,0.00,meteohub,2013-06-01 21:14:00,
2013-06-01 16:19:00,74.1,56.8,29.60,West,270,10.0,20.0,55,0.00,,,0.00,meteohub,2013-06-01 21:19:00,
2013-06-01 16:24:00,73.9,56.3,29.60,West,270,12.0,20.0,54,0.00,,,0.00,meteohub,2013-06-01 21:24:00,
2013-06-01 16:29:00,73.8,56.7,29.59,West,270,14.0,20.0,55,0.00,,,0.00,meteohub,2013-06-01 21:29:00,
2013-06-01 16:34:00,73.4,56.3,29.60,NW,315,15.0,18.0,55,0.00,,,0.00,meteohub,2013-06-01 21:34:00,
2013-06-01 16:39:00,72.5,55.9,29.60,NW,315,8.0,18.0,56,0.00,,,0.00,meteohub,2013-06-01 21:39:00,
2013-06-01 16:44:00,72.1,56.5,29.60,SW,225,17.0,17.0,58,0.00,,,0.00,meteohub,2013-06-01 21:44:00,
2013-06-01 16:49:00,71.8,57.2,29.60,SW,225,13.0,17.0,60,0.00,,,0.00,meteohub,2013-06-01 21:49:00,
2013-06-01 16:54:00,71.4,57.7,29.60,SW,225,16.0,17.0,62,0.00,,,0.00,meteohub,2013-06-01 21:54:00,
2013-06-01 16:59:00,70.9,57.7,29.60,West,270,11.0,17.0,63,0.00,,,0.00,meteohub,2013-06-01 21:59:00,
2013-06-01 17:04:00,70.7,57.6,29.61,WSW,248,16.0,17.0,63,0.00,,,0.00,meteohub,2013-06-01 22:04:00,
2013-06-01 17:09:00,70.7,57.9,29.61,South,180,15.0,17.0,64,0.00,,,0.00,meteohub,2013-06-01 22:09:00,
2013-06-01 17:14:00,70.3,57.6,29.61,SW,225,17.0,17.0,64,0.00,,,0.00,meteohub,2013-06-01 22:14:00,
2013-06-01 17:20:00,70.3,58.1,29.61,West,270,15.0,18.0,65,0.00,,,0.00,meteohub,2013-06-01 22:20:00,
2013-06-01 17:25:00,70.2,58.3,29.62,SW,225,17.0,18.0,66,0.00,,,0.00,meteohub,2013-06-01 22:25:00,
2013-06-01 17:30:00,69.6,58.1,29.62,South,180,11.0,18.0,67,0.00,,,0.00,meteohub,2013-06-01 22:30:00,
2013-06-01 17:35:00,69.4,57.9,29.62,SW,225,15.0,19.0,67,0.00,,,0.00,meteohub,2013-06-01 22:35:00,
2013-06-01 17:40:00,69.1,58.1,29.62,West,270,16.0,19.0,68,0.00,,,0.00,meteohub,2013-06-01 22:40:00,
2013-06-01 17:45:00,69.3,58.6,29.62,SW,225,12.0,19.0,69,0.00,,,0.00,meteohub,2013-06-01 22:45:00,
2013-06-01 17:50:00,69.4,58.8,29.62,North,0,7.0,18.0,69,0.00,,,0.00,meteohub,2013-06-01 22:50:00,
2013-06-01 17:55:00,70.0,58.5,29.62,SW,225,11.0,16.0,67,0.00,,,0.00,meteohub,2013-06-01 22:55:00,
2013-06-01 18:00:00,70.2,59.2,29.62,NW,315,13.0,16.0,68,0.00,,,0.00,meteohub,2013-06-01 23:00:00,
2013-06-01 18:05:00,71.1,59.5,29.61,SW,225,14.0,16.0,67,0.00,,,0.00,meteohub,2013-06-01 23:05:00,
2013-06-01 18:10:00,70.2,58.3,29.62,NW,315,11.0,18.0,66,0.00,,,0.00,meteohub,2013-06-01 23:10:00,
2013-06-01 18:15:00,69.3,58.6,29.62,SW,225,8.0,18.0,69,0.00,,,0.00,meteohub,2013-06-01 23:15:00,
2013-06-01 18:20:00,69.1,58.8,29.62,West,270,8.0,18.0,70,0.00,,,0.00,meteohub,2013-06-01 23:20:00,
2013-06-01 18:25:00,69.3,59.0,29.62,NW,315,10.0,12.0,70,0.00,,,0.00,meteohub,2013-06-01 23:25:00,
2013-06-01 18:30:00,69.6,58.6,29.62,NW,315,14.0,15.0,68,0.00,,,0.00,meteohub,2013-06-01 23:30:00,
2013-06-01 18:36:00,70.2,58.3,29.62,SW,225,13.0,15.0,66,0.00,,,0.00,meteohub,2013-06-01 23:36:00,
2013-06-01 18:41:00,69.6,57.7,29.62,West,270,12.0,15.0,66,0.00,,,0.00,meteohub,2013-06-01 23:41:00,
2013-06-01 18:46:00,68.7,57.7,29.63,SW,225,11.0,14.0,68,0.00,,,0.00,meteohub,2013-06-01 23:46:00,
2013-06-01 18:51:00,68.0,57.4,29.63,West,270,8.0,14.0,69,0.00,,,0.00,meteohub,2013-06-01 23:51:00,
2013-06-01 18:56:00,67.6,58.3,29.63,West,270,9.0,17.0,72,0.00,,,0.00,meteohub,2013-06-01 23:56:00,
2013-06-01 19:01:00,67.6,58.3,29.63,NW,315,6.0,17.0,72,0.00,,,0.00,meteohub,2013-06-02 00:01:00,
2013-06-01 19:06:00,68.4,58.3,29.63,West,270,9.0,16.0,70,0.00,,,0.00,meteohub,2013-06-02 00:06:00,
2013-06-01 19:11:00,69.1,58.5,29.63,SW,225,11.0,16.0,69,0.00,,,0.00,meteohub,2013-06-02 00:11:00,
2013-06-01 19:16:00,69.1,58.1,29.63,West,270,8.0,13.0,68,0.00,,,0.00,meteohub,2013-06-02 00:16:00,
2013-06-01 19:21:00,68.9,57.9,29.63,SW,225,8.0,11.0,68,0.00,,,0.00,meteohub,2013-06-02 00:21:00,
2013-06-01 19:26:00,68.5,57.9,29.63,NW,315,6.0,11.0,69,0.00,,,0.00,meteohub,2013-06-02 00:26:00,
2013-06-01 19:31:00,68.0,57.9,29.64,SW,225,10.0,11.0,70,0.00,,,0.00,meteohub,2013-06-02 00:31:00,
2013-06-01 19:36:00,67.6,58.6,29.64,West,270,4.0,11.0,73,0.00,,,0.00,meteohub,2013-06-02 00:36:00,
2013-06-01 19:41:00,67.3,58.6,29.64,West,270,9.0,11.0,74,0.00,,,0.00,meteohub,2013-06-02 00:41:00,
2013-06-01 19:46:00,66.9,57.9,29.64,West,270,5.0,14.0,73,0.00,,,0.00,meteohub,2013-06-02 00:46:00,
2013-06-01 19:51:00,66.7,57.7,29.65,NW,315,9.0,14.0,73,0.00,,,0.00,meteohub,2013-06-02 00:51:00,
2013-06-01 19:56:00,66.6,57.6,29.65,SW,225,4.0,14.0,73,0.00,,,0.00,meteohub,2013-06-02 00:56:00,
2013-06-01 20:01:00,66.2,57.7,29.65,NW,315,5.0,9.0,74,0.00,,,0.00,meteohub,2013-06-02 01:01:00,
2013-06-01 20:06:00,66.2,57.7,29.65,West,270,6.0,9.0,74,0.00,,,0.00,meteohub,2013-06-02 01:06:00,
2013-06-01 20:11:00,66.2,58.1,29.65,West,270,8.0,8.0,75,0.00,,,0.00,meteohub,2013-06-02 01:11:00,
2013-06-01 20:17:00,65.8,58.1,29.65,NW,315,4.0,10.0,76,0.00,,,0.00,meteohub,2013-06-02 01:17:00,
2013-06-01 20:22:00,65.8,58.1,29.65,North,0,5.0,10.0,76,0.00,,,0.00,meteohub,2013-06-02 01:22:00,
2013-06-01 20:27:00,65.7,58.3,29.65,NW,315,7.0,10.0,77,0.00,,,0.00,meteohub,2013-06-02 01:27:00,
2013-06-01 20:32:00,65.5,58.1,29.65,West,270,4.0,10.0,77,0.00,,,0.00,meteohub,2013-06-02 01:32:00,
2013-06-01 20:37:00,65.3,58.3,29.65,NW,315,4.0,10.0,78,0.00,,,0.00,meteohub,2013-06-02 01:37:00,
2013-06-01 20:42:00,65.1,58.5,29.65,West,270,5.0,9.0,79,0.00,,,0.00,meteohub,2013-06-02 01:42:00,
2013-06-01 20:47:00,65.1,58.5,29.65,NW,315,4.0,8.0,79,0.00,,,0.00,meteohub,2013-06-02 01:47:00,
2013-06-01 20:52:00,64.9,58.6,29.65,West,270,7.0,8.0,80,0.00,,,0.00,meteohub,2013-06-02 01:52:00,
2013-06-01 20:57:00,64.9,58.6,29.65,West,270,4.0,8.0,80,0.00,,,0.00,meteohub,2013-06-02 01:57:00,
2013-06-01 21:02:00,64.8,58.8,29.65,West,270,6.0,8.0,81,0.00,,,0.00,meteohub,2013-06-02 02:02:00,
2013-06-01 21:07:00,64.6,59.0,29.65,West,270,4.0,10.0,82,0.00,,,0.00,meteohub,2013-06-02 02:07:00,
2013-06-01 21:12:00,64.6,59.0,29.66,West,270,8.0,10.0,82,0.00,,,0.00,meteohub,2013-06-02 02:12:00,
2013-06-01 21:17:00,64.4,59.2,29.66,SW,225,5.0,11.0,83,0.00,,,0.00,meteohub,2013-06-02 02:17:00,
2013-06-01 21:22:00,64.4,59.2,29.66,SE,135,2.0,11.0,83,0.00,,,0.00,meteohub,2013-06-02 02:22:00,
2013-06-01 21:27:00,64.4,59.5,29.66,SW,225,6.0,8.0,84,0.00,,,0.00,meteohub,2013-06-02 02:27:00,
2013-06-01 21:32:00,64.4,59.5,29.67,NW,315,4.0,8.0,84,0.00,,,0.00,meteohub,2013-06-02 02:32:00,
2013-06-01 21:37:00,64.4,59.5,29.67,SW,225,6.0,8.0,84,0.00,,,0.00,meteohub,2013-06-02 02:37:00,
2013-06-01 21:42:00,64.2,59.0,29.67,SW,225,4.0,8.0,83,0.00,,,0.00,meteohub,2013-06-02 02:42:00,
2013-06-01 21:48:00,64.2,59.4,29.67,West,270,5.0,10.0,84,0.00,,,0.00,meteohub,2013-06-02 02:48:00,
2013-06-01 21:53:00,64.2,59.4,29.68,West,270,4.0,10.0,84,0.00,,,0.00,meteohub,2013-06-02 02:53:00,
2013-06-01 21:58:00,64.2,59.4,29.68,West,270,5.0,10.0,84,0.00,,,0.00,meteohub,2013-06-02 02:58:00,
2013-06-01 22:03:00,64.2,59.5,29.68,NW,315,3.0,5.0,85,0.00,,,0.00,meteohub,2013-06-02 03:03:00,
2013-06-01 22:08:00,64.0,59.4,29.68,SW,225,6.0,6.0,85,0.00,,,0.00,meteohub,2013-06-02 03:08:00,
2013-06-01 22:13:00,64.0,59.4,29.68,West,270,4.0,7.0,85,0.00,,,0.00,meteohub,2013-06-02 03:13:00,
2013-06-01 22:18:00,64.0,59.4,29.68,West,270,5.0,7.0,85,0.00,,,0.00,meteohub,2013-06-02 03:18:00,
2013-06-01 22:23:00,64.0,59.4,29.68,West,270,4.0,7.0,85,0.00,,,0.00,meteohub,2013-06-02 03:23:00,
2013-06-01 22:28:00,63.9,59.2,29.68,West,270,4.0,7.0,85,0.00,,,0.00,meteohub,2013-06-02 03:28:00,
2013-06-01 22:33:00,63.7,59.4,29.68,West,270,5.0,7.0,86,0.00,,,0.00,meteohub,2013-06-02 03:33:00,
2013-06-01 22:38:00,63.5,59.2,29.68,SW,225,4.0,7.0,86,0.00,,,0.00,meteohub,2013-06-02 03:38:00,
2013-06-01 22:43:00,63.3,59.0,29.68,West,270,4.0,8.0,86,0.00,,,0.00,meteohub,2013-06-02 03:43:00,
2013-06-01 22:48:00,63.0,58.6,29.68,West,270,3.0,8.0,86,0.00,,,0.00,meteohub,2013-06-02 03:48:00,
2013-06-01 22:53:00,62.8,58.8,29.69,West,270,2.0,8.0,87,0.00,,,0.00,meteohub,2013-06-02 03:53:00,
2013-06-01 22:58:00,62.8,58.8,29.69,NW,315,4.0,5.0,87,0.00,,,0.00,meteohub,2013-06-02 03:58:00,
2013-06-01 23:01:00,62.6,58.6,29.69,West,270,4.0,6.0,87,0.00,,,0.00,meteohub,2013-06-02 04:01:00,
2013-06-01 23:02:00,62.6,58.6,29.69,West,270,5.0,6.0,87,0.00,,,0.00,meteohub,2013-06-02 04:02:00,
2013-06-01 23:03:00,62.6,59.0,29.69,SW,225,3.0,6.0,88,0.00,,,0.00,meteohub,2013-06-02 04:03:00,
2013-06-01 23:04:00,62.6,59.0,29.69,West,270,4.0,6.0,88,0.00,,,0.00,meteohub,2013-06-02 04:04:00,
2013-06-01 23:09:00,62.4,59.2,29.69,West,270,7.0,7.0,89,0.00,,,0.00,meteohub,2013-06-02 04:09:00,
2013-06-01 23:15:00,62.2,59.2,29.69,SW,225,4.0,6.0,90,0.00,,,0.00,meteohub,2013-06-02 04:15:00,
2013-06-01 23:20:00,62.1,59.2,29.69,West,270,6.0,7.0,90,0.00,,,0.00,meteohub,2013-06-02 04:20:00,
2013-06-01 23:25:00,62.1,59.4,29.69,West,270,5.0,7.0,91,0.00,,,0.00,meteohub,2013-06-02 04:25:00,
2013-06-01 23:30:00,62.1,59.4,29.69,SW,225,5.0,9.0,91,0.00,,,0.00,meteohub,2013-06-02 04:30:00,
2013-06-01 23:35:00,62.1,59.4,29.69,SW,225,6.0,9.0,91,0.00,,,0.00,meteohub,2013-06-02 04:35:00,
2013-06-01 23:40:00,62.1,59.7,29.69,SW,225,6.0,9.0,92,0.00,,,0.00,meteohub,2013-06-02 04:40:00,
2013-06-01 23:45:00,62.1,59.7,29.69,West,270,5.0,8.0,92,0.00,,,0.00,meteohub,2013-06-02 04:45:00,
2013-06-01 23:50:00,61.9,59.5,29.69,SW,225,4.0,8.0,92,0.00,,,0.00,meteohub,2013-06-02 04:50:00,
2013-06-01 23:55:00,61.9,59.5,29.69,SW,225,6.0,8.0,92,0.00,,,0.00,meteohub,2013-06-02 04:55:00,